JIA5532 KORD-KMKE

Flight info

Callsign JIA5532
Flight time 0h 24m
Altitude 11000
Route RAYNR BRTMN TAAYZ/N0331F100
Aircraft CRJ7/M-SDFGIRWY/S

Departure

Time 2026-05-08 22:07
Airport Chicago O'Hare International Airport (KORD)

Arrival

Time 2026-05-08 22:31
Airport General Mitchell International Airport (KMKE)
Time Latitude Longitude Altitude Speed Heading
2026-05-08 21:38 41.97321 -87.90258 667 ft 0 kts 255°
2026-05-08 21:41 41.97321 -87.90257 667 ft 0 kts 255°
2026-05-08 21:56 41.97325 -87.90241 667 ft 4 kts 246°
2026-05-08 21:56 41.97339 -87.90215 667 ft 4 kts 204°
2026-05-08 21:57 41.97361 -87.90209 667 ft 4 kts 180°
2026-05-08 21:57 41.97379 -87.90209 667 ft 0 kts 180°
2026-05-08 21:59 41.97378 -87.90209 667 ft 2 kts 180°
2026-05-08 21:59 41.97338 -87.90208 667 ft 10 kts 179°
2026-05-08 21:59 41.97254 -87.90208 667 ft 13 kts 180°
2026-05-08 22:00 41.97205 -87.90276 667 ft 12 kts 267°
2026-05-08 22:00 41.97208 -87.90415 667 ft 17 kts 272°
2026-05-08 22:00 41.97215 -87.90590 667 ft 19 kts 275°
2026-05-08 22:00 41.97254 -87.90763 667 ft 20 kts 306°
2026-05-08 22:01 41.97335 -87.90885 667 ft 17 kts 292°
2026-05-08 22:01 41.97283 -87.91013 667 ft 17 kts 229°
2026-05-08 22:01 41.97246 -87.91155 667 ft 16 kts 234°
2026-05-08 22:01 41.97236 -87.91286 667 ft 16 kts 292°
2026-05-08 22:02 41.97245 -87.91456 667 ft 21 kts 270°
2026-05-08 22:02 41.97244 -87.91651 667 ft 21 kts 270°
2026-05-08 22:02 41.97244 -87.91854 667 ft 22 kts 270°
2026-05-08 22:02 41.97243 -87.92062 667 ft 23 kts 270°
2026-05-08 22:03 41.97243 -87.92259 667 ft 19 kts 270°
2026-05-08 22:03 41.97243 -87.92441 667 ft 20 kts 270°
2026-05-08 22:03 41.97243 -87.92612 667 ft 13 kts 270°
2026-05-08 22:03 41.97289 -87.92662 667 ft 10 kts
2026-05-08 22:04 41.97378 -87.92661 667 ft 15 kts
2026-05-08 22:04 41.97494 -87.92661 667 ft 19 kts 360°
2026-05-08 22:04 41.97627 -87.92662 667 ft 19 kts 359°
2026-05-08 22:04 41.97763 -87.92665 667 ft 20 kts 359°
2026-05-08 22:05 41.97902 -87.92668 667 ft 20 kts 359°
2026-05-08 22:05 41.98046 -87.92670 667 ft 21 kts 359°
2026-05-08 22:05 41.98189 -87.92648 667 ft 21 kts
2026-05-08 22:05 41.98330 -87.92647 666 ft 16 kts 360°
2026-05-08 22:06 41.98388 -87.92610 666 ft 8 kts 86°
2026-05-08 22:06 41.98389 -87.92601 666 ft 1 kts 89°
2026-05-08 22:06 41.98389 -87.92596 666 ft 0 kts 89°
2026-05-08 22:06 41.98389 -87.92366 664 ft 64 kts 90°
2026-05-08 22:07 41.98389 -87.91421 670 ft 134 kts 90°
2026-05-08 22:07 41.98385 -87.90020 1086 ft 154 kts 92°
2026-05-08 22:07 41.98381 -87.88565 1853 ft 166 kts 91°
2026-05-08 22:07 41.98383 -87.86980 2457 ft 169 kts 89°
2026-05-08 22:08 41.98418 -87.85402 3126 ft 170 kts 81°
2026-05-08 22:08 41.98996 -87.84044 3655 ft 172 kts 33°
2026-05-08 22:08 42.00127 -87.83496 4109 ft 182 kts
2026-05-08 22:08 42.01445 -87.83246 4638 ft 200 kts
2026-05-08 22:09 42.02867 -87.83126 5235 ft 214 kts 358°
2026-05-08 22:09 42.04365 -87.83072 6032 ft 217 kts 357°
2026-05-08 22:09 42.05910 -87.83050 6607 ft 232 kts 357°
2026-05-08 22:09 42.07595 -87.83042 6998 ft 252 kts 356°
2026-05-08 22:10 42.09408 -87.83044 7445 ft 268 kts 356°
2026-05-08 22:10 42.11322 -87.83048 7985 ft 281 kts 356°
2026-05-08 22:10 42.13315 -87.83048 8625 ft 290 kts 356°
2026-05-08 22:10 42.15366 -87.83043 9315 ft 298 kts 356°
2026-05-08 22:11 42.17460 -87.83034 9998 ft 304 kts 356°
2026-05-08 22:11 42.18866 -87.83021 10416 ft 308 kts 356°
2026-05-08 22:11 42.21069 -87.83001 10776 ft 322 kts 356°
2026-05-08 22:11 42.23294 -87.82970 10936 ft 319 kts 356°
2026-05-08 22:12 42.25506 -87.82931 11001 ft 317 kts 356°
2026-05-08 22:12 42.27716 -87.82875 11021 ft 317 kts 356°
2026-05-08 22:12 42.29917 -87.82795 11025 ft 316 kts 357°
2026-05-08 22:12 42.32110 -87.82601 11028 ft 316 kts
2026-05-08 22:13 42.34292 -87.82279 11023 ft 315 kts
2026-05-08 22:13 42.36471 -87.81944 11031 ft 315 kts
2026-05-08 22:13 42.38645 -87.81612 11038 ft 314 kts
2026-05-08 22:13 42.40816 -87.81320 11031 ft 313 kts
2026-05-08 22:14 42.42987 -87.81039 11042 ft 313 kts
2026-05-08 22:14 42.45156 -87.80761 11036 ft 313 kts
2026-05-08 22:14 42.47296 -87.80490 11026 ft 312 kts 359°
2026-05-08 22:14 42.49452 -87.80469 11038 ft 308 kts 352°
2026-05-08 22:15 42.51586 -87.80659 11031 ft 307 kts 351°
2026-05-08 22:15 42.53718 -87.80874 11026 ft 307 kts 351°
2026-05-08 22:15 42.55848 -87.81079 11024 ft 307 kts 351°
2026-05-08 22:15 42.57980 -87.81244 11030 ft 307 kts 352°
2026-05-08 22:16 42.60115 -87.81390 11031 ft 307 kts 352°
2026-05-08 22:16 42.62244 -87.81531 11031 ft 306 kts 352°
2026-05-08 22:16 42.64374 -87.81670 11033 ft 306 kts 352°
2026-05-08 22:16 42.66501 -87.81806 11040 ft 306 kts 352°
2026-05-08 22:17 42.68627 -87.81944 11044 ft 306 kts 352°
2026-05-08 22:17 42.70756 -87.82080 11043 ft 306 kts 352°
2026-05-08 22:17 42.72889 -87.82206 11025 ft 307 kts 355°
2026-05-08 22:17 42.74997 -87.81892 11003 ft 300 kts
2026-05-08 22:18 42.76986 -87.81412 10949 ft 289 kts
2026-05-08 22:18 42.78933 -87.80891 10768 ft 283 kts
2026-05-08 22:18 42.80866 -87.80361 10475 ft 282 kts
2026-05-08 22:18 42.82788 -87.79841 10172 ft 282 kts
2026-05-08 22:19 42.84714 -87.79326 9853 ft 281 kts
2026-05-08 22:19 42.86635 -87.78818 9534 ft 280 kts
2026-05-08 22:19 42.88546 -87.78321 9172 ft 279 kts
2026-05-08 22:19 42.90448 -87.77831 8835 ft 277 kts
2026-05-08 22:20 42.92338 -87.77349 8508 ft 276 kts
2026-05-08 22:20 42.94219 -87.76869 8183 ft 274 kts
2026-05-08 22:20 42.96087 -87.76395 7865 ft 272 kts
2026-05-08 22:20 42.97946 -87.75928 7532 ft 271 kts
2026-05-08 22:21 42.99794 -87.75467 7203 ft 269 kts
2026-05-08 22:21 43.01634 -87.75007 6863 ft 268 kts
2026-05-08 22:21 43.03438 -87.74561 6532 ft 266 kts
2026-05-08 22:21 43.05257 -87.74117 6182 ft 265 kts
2026-05-08 22:22 43.07068 -87.73678 5810 ft 263 kts
2026-05-08 22:22 43.08866 -87.73249 5442 ft 262 kts
2026-05-08 22:22 43.10652 -87.72832 5069 ft 260 kts
2026-05-08 22:22 43.12434 -87.72422 4702 ft 259 kts
2026-05-08 22:23 43.14210 -87.72023 4315 ft 258 kts
2026-05-08 22:23 43.15982 -87.71634 3933 ft 257 kts
2026-05-08 22:23 43.17750 -87.71262 3517 ft 257 kts
2026-05-08 22:23 43.19517 -87.70898 3147 ft 255 kts
2026-05-08 22:24 43.21228 -87.71031 2942 ft 240 kts 337°
2026-05-08 22:24 43.22515 -87.72284 2871 ft 220 kts 303°
2026-05-08 22:24 43.22986 -87.74123 2865 ft 196 kts 267°
2026-05-08 22:24 43.22544 -87.75781 2844 ft 186 kts 228°
2026-05-08 22:25 43.21538 -87.76812 2836 ft 179 kts 213°
2026-05-08 22:25 43.20505 -87.77684 2832 ft 171 kts 212°
2026-05-08 22:25 43.19474 -87.78515 2847 ft 173 kts 212°
2026-05-08 22:25 43.18428 -87.79336 2841 ft 174 kts 211°
2026-05-08 22:26 43.17370 -87.80152 2840 ft 175 kts 210°
2026-05-08 22:26 43.16302 -87.80969 2849 ft 176 kts 210°
2026-05-08 22:26 43.15221 -87.81791 2841 ft 178 kts 211°
2026-05-08 22:26 43.14128 -87.82617 2833 ft 181 kts 211°
2026-05-08 22:27 43.13021 -87.83454 2820 ft 182 kts 211°
2026-05-08 22:27 43.11910 -87.84294 2812 ft 182 kts 210°
2026-05-08 22:27 43.10815 -87.85125 2809 ft 182 kts 211°
2026-05-08 22:27 43.09705 -87.85969 2802 ft 182 kts 211°
2026-05-08 22:28 43.08574 -87.86730 2802 ft 176 kts 201°
2026-05-08 22:28 43.07474 -87.87141 2805 ft 149 kts 195°
2026-05-08 22:28 43.06502 -87.87386 2836 ft 145 kts 193°
2026-05-08 22:28 43.05484 -87.87622 2716 ft 150 kts 191°
2026-05-08 22:29 43.04464 -87.87836 2469 ft 146 kts 190°
2026-05-08 22:29 43.03459 -87.87982 2190 ft 144 kts 186°
2026-05-08 22:29 43.02476 -87.88101 1918 ft 136 kts 185°
2026-05-08 22:29 43.01555 -87.88232 1688 ft 133 kts 184°
2026-05-08 22:30 43.00631 -87.88413 1566 ft 136 kts 186°
2026-05-08 22:30 42.99677 -87.88600 1435 ft 140 kts 185°
2026-05-08 22:30 42.98718 -87.88780 1345 ft 137 kts 185°
2026-05-08 22:30 42.97788 -87.88946 1172 ft 133 kts 182°
2026-05-08 22:31 42.96863 -87.89101 957 ft 134 kts 184°
2026-05-08 22:31 42.95951 -87.89263 783 ft 129 kts 182°
2026-05-08 22:31 42.95123 -87.89406 678 ft 101 kts 184°
2026-05-08 22:31 42.94628 -87.89493 690 ft 41 kts 190°
2026-05-08 22:32 42.94383 -87.89537 689 ft 33 kts 185°
2026-05-08 22:32 42.94187 -87.89580 689 ft 25 kts 194°
2026-05-08 22:32 42.94051 -87.89703 689 ft 19 kts 238°
2026-05-08 22:32 42.94039 -87.89735 688 ft 0 kts 249°
2026-05-08 22:33 42.94034 -87.89757 691 ft 6 kts 257°
2026-05-08 22:33 42.94050 -87.89851 688 ft 15 kts 317°
2026-05-08 22:33 42.94161 -87.89892 690 ft 18 kts 350°
2026-05-08 22:33 42.94300 -87.89925 689 ft 22 kts 350°
2026-05-08 22:34 42.94437 -87.89958 692 ft 19 kts 349°
2026-05-08 22:34 42.94539 -87.89915 690 ft 16 kts 63°
2026-05-08 22:34 42.94600 -87.89781 688 ft 15 kts 48°
2026-05-08 22:34 42.94658 -87.89756 687 ft 3 kts 292°
2026-05-08 22:35 42.94660 -87.89789 688 ft 5 kts 279°
2026-05-08 22:35 42.94667 -87.89820 683 ft 3 kts 294°
2026-05-08 22:35 42.94672 -87.89836 687 ft 2 kts 294°
2026-05-08 22:35 42.94675 -87.89847 683 ft 0 kts 295°